• In Uzbekistan
  • List of Countries
  • For 7 days
  • Water Temperature
  • Satellite Maps
  • Weather Map
  • Weather Widgets
  • user-avatar
    Login

    Hourly Weather Lampeter

    Today, 23 October, Monday

    Time Temperature Precipitation Wind Pressure Humidity
    00:00 +5°C° 0 mm 3 mps 753 mmHg 92%
    01:00 +7°C° 0.1 mm 3 mps 753 mmHg 92%
    02:00 +7°C° 0.1 mm 2 mps 753 mmHg 92%
    03:00 +8°C° 0.1 mm 2 mps 753 mmHg 91%
    04:00 +8°C° 0.2 mm 2 mps 752 mmHg 92%
    05:00 +8°C° 0.2 mm 3 mps 752 mmHg 93%
    06:00 +9°C° 0.2 mm 3 mps 752 mmHg 94%
    07:00 +9°C° 0.3 mm 3 mps 752 mmHg 94%
    08:00 +10°C° 0.3 mm 4 mps 751 mmHg 95%
    09:00 +10°C° 0.3 mm 4 mps 751 mmHg 95%
    10:00 +11°C° 0.3 mm 4 mps 751 mmHg 94%
    11:00 +12°C° 0.3 mm 4 mps 751 mmHg 93%
    12:00 +13°C° 0.3 mm 4 mps 751 mmHg 93%
    13:00 +13°C° 0 mm 4 mps 751 mmHg 90%
    14:00 +13°C° 0 mm 4 mps 751 mmHg 88%
    15:00 +14°C° 0 mm 4 mps 751 mmHg 85%
    16:00 +13°C° 0.3 mm 4 mps 751 mmHg 88%
    17:00 +13°C° 0.3 mm 4 mps 751 mmHg 90%
    18:00 +12°C° 0.3 mm 5 mps 752 mmHg 92%
    19:00 +11°C° 0.1 mm 4 mps 752 mmHg 93%
    20:00 +11°C° 0.1 mm 4 mps 752 mmHg 94%
    21:00 +10°C° 0.1 mm 3 mps 753 mmHg 94%
    22:00 +9°C° 0 mm 3 mps 753 mmHg 95%
    23:00 +9°C° 0 mm 3 mps 753 mmHg 95%

    Tomorrow, 24 October, Tuesday

    Time Temperature Precipitation Wind Pressure Humidity
    00:00 +8°C° 0 mm 3 mps 753 mmHg 96%
    01:00 +8°C° 0 mm 3 mps 752 mmHg 96%
    02:00 +9°C° 0 mm 3 mps 752 mmHg 96%
    03:00 +8°C° 0 mm 4 mps 752 mmHg 95%
    04:00 +8°C° 0.3 mm 4 mps 751 mmHg 95%
    05:00 +10°C° 0.3 mm 4 mps 751 mmHg 95%
    06:00 +11°C° 0.3 mm 4 mps 750 mmHg 95%
    07:00 +12°C° 1.5 mm 4 mps 749 mmHg 95%
    08:00 +12°C° 1.5 mm 4 mps 749 mmHg 95%
    09:00 +13°C° 1.5 mm 4 mps 748 mmHg 95%
    10:00 +13°C° 0.2 mm 5 mps 749 mmHg 91%
    11:00 +14°C° 0.2 mm 6 mps 749 mmHg 88%
    12:00 +14°C° 0.2 mm 7 mps 749 mmHg 85%
    13:00 +14°C° 0 mm 6 mps 749 mmHg 84%
    14:00 +13°C° 0 mm 6 mps 749 mmHg 84%
    15:00 +13°C° 0 mm 5 mps 749 mmHg 84%
    16:00 +12°C° 0.3 mm 5 mps 749 mmHg 87%
    17:00 +12°C° 0.3 mm 4 mps 749 mmHg 90%
    18:00 +11°C° 0.3 mm 4 mps 749 mmHg 93%
    19:00 +11°C° 0.7 mm 4 mps 749 mmHg 93%
    20:00 +11°C° 0.7 mm 4 mps 749 mmHg 93%
    21:00 +10°C° 0.7 mm 5 mps 749 mmHg 94%
    22:00 +10°C° 0.2 mm 5 mps 749 mmHg 93%
    23:00 +10°C° 0.2 mm 5 mps 750 mmHg 93%

    Day after tomorrow, 25 October, Wednesday

    Time Temperature Precipitation Wind Pressure Humidity
    00:00 +9°C° 0.2 mm 6 mps 750 mmHg 92%
    01:00 +9°C° 0 mm 6 mps 750 mmHg 92%
    02:00 +9°C° 0 mm 6 mps 750 mmHg 92%
    03:00 +9°C° 0 mm 7 mps 751 mmHg 91%
    04:00 +9°C° 0 mm 7 mps 751 mmHg 91%
    05:00 +9°C° 0 mm 6 mps 751 mmHg 90%
    06:00 +9°C° 0 mm 6 mps 752 mmHg 89%
    07:00 +9°C° 0 mm 7 mps 752 mmHg 88%
    08:00 +10°C° 0 mm 7 mps 752 mmHg 87%
    09:00 +10°C° 0 mm 7 mps 753 mmHg 86%
    10:00 +10°C° 0 mm 7 mps 753 mmHg 83%
    11:00 +11°C° 0 mm 8 mps 754 mmHg 80%
    12:00 +11°C° 0 mm 8 mps 754 mmHg 77%
    13:00 +11°C° 0 mm 8 mps 754 mmHg 77%
    14:00 +11°C° 0 mm 8 mps 754 mmHg 77%
    15:00 +11°C° 0 mm 7 mps 754 mmHg 77%
    16:00 +11°C° 0 mm 7 mps 755 mmHg 80%
    17:00 +10°C° 0 mm 7 mps 755 mmHg 82%
    18:00 +9°C° 0 mm 6 mps 755 mmHg 85%
    19:00 +9°C° 0 mm 7 mps 755 mmHg 85%
    20:00 +9°C° 0 mm 7 mps 756 mmHg 85%
    21:00 +9°C° 0 mm 7 mps 756 mmHg 85%
    22:00 +9°C° 0 mm 7 mps 756 mmHg 86%
    23:00 +9°C° 0 mm 7 mps 756 mmHg 86%

    26 October, Thursday

    Time Temperature Precipitation Wind Pressure Humidity
    00:00 +9°C° 0 mm 7 mps 756 mmHg 86%
    01:00 +9°C° 0 mm 7 mps 756 mmHg 86%
    02:00 +9°C° 0 mm 7 mps 757 mmHg 87%
    03:00 +9°C° 0 mm 7 mps 757 mmHg 87%
    04:00 +9°C° 0 mm 7 mps 757 mmHg 87%
    05:00 +9°C° 0 mm 7 mps 757 mmHg 87%
    06:00 +9°C° 0 mm 7 mps 757 mmHg 88%
    07:00 +9°C° 0 mm 7 mps 758 mmHg 86%
    08:00 +9°C° 0 mm 7 mps 758 mmHg 85%
    09:00 +10°C° 0 mm 7 mps 759 mmHg 84%
    10:00 +10°C° 0 mm 7 mps 759 mmHg 82%
    11:00 +11°C° 0 mm 7 mps 759 mmHg 79%
    12:00 +11°C° 0 mm 7 mps 759 mmHg 77%
    13:00 +11°C° 0 mm 7 mps 759 mmHg 77%
    14:00 +11°C° 0 mm 6 mps 759 mmHg 77%
    15:00 +11°C° 0 mm 6 mps 759 mmHg 77%
    16:00 +10°C° 0 mm 5 mps 760 mmHg 82%
    17:00 +9°C° 0 mm 5 mps 760 mmHg 86%
    18:00 +8°C° 0 mm 4 mps 760 mmHg 90%
    19:00 +7°C° 0 mm 4 mps 760 mmHg 91%
    20:00 +7°C° 0 mm 4 mps 761 mmHg 92%
    21:00 +7°C° 0 mm 5 mps 761 mmHg 93%
    22:00 +7°C° 0 mm 4 mps 761 mmHg 93%
    23:00 +7°C° 0 mm 4 mps 762 mmHg 93%

    27 October, Friday

    Time Temperature Precipitation Wind Pressure Humidity
    00:00 +7°C° 0 mm 4 mps 762 mmHg 93%
    01:00 +7°C° 0 mm 4 mps 762 mmHg 94%
    02:00 +7°C° 0 mm 4 mps 762 mmHg 94%
    03:00 +6°C° 0 mm 4 mps 762 mmHg 95%
    04:00 +6°C° 0 mm 4 mps 762 mmHg 95%
    05:00 +6°C° 0 mm 4 mps 763 mmHg 95%
    06:00 +5°C° 0 mm 4 mps 763 mmHg 94%
    07:00 +6°C° 0 mm 4 mps 763 mmHg 92%
    08:00 +6°C° 0 mm 5 mps 763 mmHg 89%
    09:00 +7°C° 0 mm 5 mps 763 mmHg 86%
    10:00 +8°C° 0 mm 6 mps 763 mmHg 82%
    11:00 +9°C° 0 mm 7 mps 763 mmHg 79%
    12:00 +9°C° 0 mm 8 mps 763 mmHg 76%
    13:00 +9°C° 0 mm 8 mps 762 mmHg 76%
    14:00 +9°C° 0 mm 8 mps 762 mmHg 76%
    15:00 +8°C° 0 mm 9 mps 762 mmHg 76%
    16:00 +8°C° 0 mm 9 mps 761 mmHg 78%
    17:00 +7°C° 0 mm 9 mps 761 mmHg 79%
    18:00 +7°C° 0 mm 9 mps 761 mmHg 80%
    19:00 +7°C° 0 mm 9 mps 761 mmHg 79%
    20:00 +8°C° 0 mm 9 mps 760 mmHg 79%
    21:00 +8°C° 0 mm 9 mps 760 mmHg 79%
    22:00 +8°C° 0 mm 9 mps 760 mmHg 80%
    23:00 +9°C° 0 mm 8 mps 760 mmHg 82%

    28 October, Saturday

    Time Temperature Precipitation Wind Pressure Humidity
    00:00 +10°C° 0 mm 8 mps 760 mmHg 83%
    01:00 +10°C° 0 mm 7 mps 760 mmHg 83%
    02:00 +10°C° 0 mm 7 mps 760 mmHg 84%
    03:00 +10°C° 0 mm 7 mps 759 mmHg 84%
    04:00 +10°C° 0 mm 6 mps 760 mmHg 85%
    05:00 +10°C° 0 mm 6 mps 760 mmHg 86%
    06:00 +10°C° 0 mm 6 mps 760 mmHg 87%
    07:00 +10°C° 0 mm 6 mps 760 mmHg 86%
    08:00 +10°C° 0 mm 5 mps 760 mmHg 85%
    09:00 +10°C° 0 mm 5 mps 761 mmHg 85%
    10:00 +11°C° 0 mm 6 mps 761 mmHg 83%
    11:00 +11°C° 0 mm 6 mps 761 mmHg 81%
    12:00 +13°C° 0 mm 6 mps 761 mmHg 79%
    13:00 +13°C° 0 mm 6 mps 761 mmHg 79%
    14:00 +11°C° 0 mm 6 mps 760 mmHg 80%
    15:00 +11°C° 0 mm 7 mps 760 mmHg 80%
    16:00 +10°C° 0 mm 7 mps 760 mmHg 82%
    17:00 +10°C° 0 mm 7 mps 760 mmHg 85%
    18:00 +9°C° 0 mm 6 mps 760 mmHg 87%
    19:00 +9°C° 0 mm 6 mps 760 mmHg 87%
    20:00 +8°C° 0 mm 7 mps 760 mmHg 87%
    21:00 +8°C° 0 mm 7 mps 760 mmHg 87%
    22:00 +8°C° 0 mm 7 mps 760 mmHg 86%
    23:00 +6°C° 0 mm 7 mps 760 mmHg 84%

    29 October, Sunday

    Time Temperature Precipitation Wind Pressure Humidity
    00:00 +6°C° 0 mm 7 mps 760 mmHg 83%
    01:00 +8°C° 0 mm 7 mps 759 mmHg 83%
    02:00 +8°C° 0 mm 7 mps 759 mmHg 83%
    03:00 +8°C° 0 mm 7 mps 758 mmHg 83%
    04:00 +9°C° 0.1 mm 7 mps 758 mmHg 86%
    05:00 +11°C° 0.1 mm 7 mps 758 mmHg 88%
    06:00 +12°C° 0.1 mm 8 mps 757 mmHg 91%
    07:00 +12°C° 0.1 mm 8 mps 757 mmHg 90%
    08:00 +12°C° 0.1 mm 8 mps 757 mmHg 89%
    09:00 +12°C° 0.1 mm 8 mps 757 mmHg 88%
    10:00 +12°C° 0 mm 8 mps 757 mmHg 84%
    11:00 +12°C° 0 mm 8 mps 758 mmHg 80%
    12:00 +12°C° 0 mm 8 mps 758 mmHg 76%
    13:00 +11°C° 0 mm 8 mps 758 mmHg 75%
    14:00 +11°C° 0 mm 7 mps 759 mmHg 75%
    15:00 +10°C° 0 mm 7 mps 759 mmHg 74%
    16:00 +9°C° 0 mm 6 mps 759 mmHg 77%
    17:00 +8°C° 0 mm 6 mps 760 mmHg 79%
    18:00 +7°C° 0 mm 5 mps 761 mmHg 81%
    19:00 +6°C° 0 mm 5 mps 761 mmHg 82%
    20:00 +6°C° 0 mm 5 mps 762 mmHg 83%
    21:00 +6°C° 0 mm 5 mps 762 mmHg 83%
    22:00 +5°C° 0 mm 5 mps 763 mmHg 85%
    23:00 +5°C° 0 mm 5 mps 763 mmHg 86%
    Show more